Location: San Martino di Castrozza
(46.2667°N, 11.8000°E)
Time: 02:18:10
(UTC+00:00)

MSX - Pass Details

Date: 23 April 2021
Orbit: 895 x 905 km, 98.8° (Epoch: 15 May)

Event Time Altitude Azimuth Distance (km) Brightness Sun altitude
Rises 02:57:21 0° 10° (N) 3,529 7.6 -12.4°
Reaches altitude 10° 02:59:49 10° 5° (N) 2,586 6.8 -12.0°
Maximum altitude 03:05:22 51° 292° (WNW) 1,123 4.1 -11.2°
Enters shadow 03:10:42 11° 218° (SW) 2,504 5.6 -10.4°
